STARLINK-11135, 60048

Orbit data source: Space-Track

STARLINK-11135, 60048 is a payload satellite owned by SpaceX/Seattle (US) in LEO that was launched on Sat, 08 Jun 2024 UTC via an FALCON 9 launch vehicle from the Air Force Western Test Range (AFWTR). Payload-class satellites include a variety of spacecraft equipped with specific instruments for various scientific and technological missions. These include communications satellites like Starlink; space stations such as the ISS; scientific satellites like the Hubble; Earth observation satellites from companies like Planet Labs, Umbra, and HawkEye 360; GPS; miniature CubeSats for education and research; and military/defense satellites.

Loading next visibility...
Identifier
60048, 2024-112L
Orbit
LEO
Country
Flag of USUS
Related business
Manufacturer
SpaceX/Seattle
Mission
Operational Commercial Communications
Bus & Motor
STARLINK V2MD, Unknown motor
Mass
960 kg wet, ~910 kg dry
Launch date (UTC)
2024-06-08 (2 years ago)
Launch vehicle
FALCON 9
Launch site
Air Force Western Test Range (AFWTR)
Object type
Payload
Rocket body
Debris
Shape & HBR
Box + 2 Pan, 18.1 m
Radar Cross Section
36.964 m², Large (>1 m²)

Expand to show TLE details & history
Last TLE update: 2 days ago

TLE from 2 days ago
0 STARLINK-11135
1 60048U 24112L   26170.16501784  .00003425  00000-0  33091-4 0  9990
2 60048  53.1576 125.6945 0000874  71.8267 288.2846 15.69727973116922
Epoch: 2026-06-19T03:57Z
TLE epoch observation values (Epoch: 2026-06-19T03:57:37.541Z)
Latitude
-0.00002°
Longitude
158.89015°
Altitude
360.405 km
Speed
7.694 km/s
True Right ascension
08h 22m 46s
True Declination
0° 00' 00"
Sunlit
Object was in daylight at epoch
Visualization orbit readout
Latitude
Unknown
Longitude
Unknown
Altitude
Unknown
Speed
Unknown
Apparent Right ascension
Unknown
Apparent Declination
Unknown
Sunlit
N/A
Visualization observer readout
Local Sidereal Time
08:32:28
Azimuth
Unknown
Elevation
Unknown
Doppler factor
Unknown
Orbital elements
Apogee altitude
360.525 km
Perigee altitude
359.347 km
Semi-major axis
6,738.073 km
Eccentricity
0.00009
Inclination
53.1576°
RAAN
125.6945°
Arg. of periapsis
71.8267°
True anomaly
288.27509°
Mean anomaly
288.2846°
Eccentric anomaly
288.27985°
Mean motion
3.9241 °/min
Orbital period
91.74 mins
BSTAR
0.000033091
Loading maneuver chart data...
Computing Atmospheric mass density...
Loading historical data...
Loading historical data...
Loading historical data...
Loading historical data...
Loading historical data...
Loading historical data...
Loading historical data...

Documentation

Showing up to 5 results
|